Overview Statistics Trail Chart Weather Telemetry Raw packets
 

This is the latest recevied weather packets stored in our database for station/object WW5JC. If no packets are shown the sender has not sent any weather packets the latest 10 day(s).

<< 71 72 73 74 75 76 77 >>
Time Temp. Humidity Pressure Rain* Wind** Luminosity Snow
1788119913 37.78° C 34% 1016.6 hPa 0 mm - 619 W/m² -
1788119612 37.78° C 35% 1016.4 hPa 0 mm - 639 W/m² -
1788119322 36.67° C 39% 1016.6 hPa 0 mm - 651 W/m² -
1788119004 35.56° C 39% 1016.8 hPa 0 mm - 163 W/m² -
1788118700 35.56° C 40% 1016.8 hPa 0 mm - 126 W/m² -
1788118394 36.67° C 39% 1016.9 hPa 0 mm - 101 W/m² -
1788118090 37.22° C 38% 1016.7 hPa 0 mm - 347 W/m² -
1788117790 37.22° C 37% 1016.8 hPa 0 mm - 692 W/m² -
1788117485 36.67° C 39% 1016.8 hPa 0 mm - 162 W/m² -
1788117185 37.22° C 41% 1017.1 hPa 0 mm - 210 W/m² -
1788116880 36.67° C 40% 1017 hPa 0 mm - 208 W/m² -
1788116576 36.11° C 40% 1017 hPa 0 mm - 470 W/m² -
1788116274 36.67° C 39% 1017 hPa 0 mm - 135 W/m² -
1788115970 36.11° C 43% 1017.1 hPa 0 mm - 693 W/m² -
1788115670 35.56° C 44% 1017.2 hPa 0 mm - 735 W/m² -
1788115369 35.56° C 47% 1017.4 hPa 0 mm - 181 W/m² -
1788115064 35.56° C 43% 1017.3 hPa 0 mm - 181 W/m² -
1788114759 35° C 48% 1017.3 hPa 0 mm - 169 W/m² -
1788114459 35° C 47% 1017.4 hPa 0 mm - 206 W/m² -
1788114155 35.56° C 47% 1017.3 hPa 0 mm - 156 W/m² -
1788113864 35.56° C 45% 1017.5 hPa 0 mm - 165 W/m² -
1788113547 36.11° C 45% 1017.4 hPa 0 mm - 207 W/m² -
1788113245 36.67° C 44% 1017.6 hPa 0 mm - 158 W/m² -
1788112940 36.67° C 46% 1017.5 hPa 0 mm - 690 W/m² -
1788112640 36.11° C 45% 1017.7 hPa 0 mm - 660 W/m² -

* Rain latest hour (hover to see other rain measurements)
** Current wind speed in m/s (hover to see current wind gust speed)